Location: Wartrace
(37.3992°N, 88.7787°W)
Time: 18:05:52
(UTC+00:00)

Daily predictions for brighter satellites

Satellite Brightness Start Highest point End
(mag) Time Altitude Azimuth Time Altitude Azimuth Time Altitude Azimuth
Cosmos 1484 Rocket 4.4 12:01:34 10° NNW 12:03:51 15° WNW 12:06:07 10° WSW
SJ-7 4.5 12:05:34 10° N 12:09:29 52° WNW 12:13:20 10° SSW
Cosmos 2279 Rocket 4.0 12:03:55 10° S 12:10:06 80° W 12:16:21 10° N
Okean 3 4.3 12:06:41 10° N 12:10:47 53° E 12:14:53 10° SSE
SL-24 R/B 4.2 12:09:27 10° S 12:14:14 72° WSW 12:18:32 10° NNW
Cosmos 1634 Rocket 4.3 12:08:54 10° SSW 12:14:46 43° WNW 12:20:38 10° N
FALCON 9 DEB 4.2 12:17:22 10° NNW 12:19:18 22° NE 12:21:15 10° E
Cosmos 1655 Rocket 4.3 12:14:47 10° N 12:21:02 76° E 12:27:13 10° S
Meteor 1-18 Rocket 4.4 12:16:36 10° NNW 12:21:59 53° W 12:27:22 10° S
PSLV R/B 3.4 12:20:00 10° WNW 12:22:12 32° N 12:24:28 10° ENE
FALCON 9 DEB 3.9 12:23:23 10° NNW 12:25:28 25° NE 12:27:32 10° E
Cosmos 371 Rocket 3.7 12:20:45 10° S 12:25:33 72° ESE 12:30:23 10° NNE
ADEOS Rocket 3.5 12:27:38 10° SSE 12:34:58 88° ENE 12:41:37 10° NNW
Cosmos 1331 Rocket 4.4 22:58:13 10° NNW 23:03:28 74° WSW 23:08:43 10° S
Meteor 1-10 Rocket 4.2 22:58:51 10° S 23:04:21 70° E 23:09:54 10° NNE
Cosmos 2360 Rocket 4.1 22:59:41 10° WSW 23:04:22 26° WNW 23:09:07 10° N
SL-8 R/B 3.7 23:01:31 10° NW 23:06:19 65° NNE 23:11:07 10° ESE
Cosmos 2279 Rocket 4.0 23:01:34 10° N 23:07:51 77° E 23:14:06 10° S
COSMO-SKYMED 1 3.9 23:06:03 10° NE 23:09:18 20° E 23:12:31 10° SE
SL-16 R/B 3.8 23:09:40 10° SE 23:12:33 14° E 23:15:27 10° ENE
CENTAUR R/B 3.5 23:05:59 10° NW 23:14:15 76° WSW 23:22:58 10° SSE
YAOGAN 1 4.3 23:13:04 10° E 23:14:36 12° ENE 23:16:08 10° NE
Atlas Centaur 2 3.8 23:08:04 10° W 23:15:15 48° S 23:23:18 10° ESE
Cosmos 2333 Rocket 2.8 23:10:05 10° SSW 23:15:45 62° WNW 23:21:28 10° NNE
Nadezhda 4 Rocket 4.1 23:17:20 10° S 23:23:32 61° E 23:29:44 10° NNE
Meteor 1-11 Rocket 3.9 23:18:14 10° N 23:24:06 56° ENE 23:29:55 10° SSE
Cosmos 2237 Rocket 2.4 23:19:07 10° S 23:24:39 56° ESE 23:30:13 10° NNE
Meteor 1-27 Rocket 3.8 23:19:22 10° S 23:24:57 64° E 23:30:42 10° NNE
BREEZE-M DEB (TANK) 3.7 23:21:42 10° NW 23:25:43 21° N 23:27:29 13° NE
Cosmos 1536 3.4 23:26:22 10° NNE 23:30:02 33° ENE 23:33:39 10° SE
Cosmos 1500 3.2 23:26:20 10° N 23:30:03 55° E 23:33:43 10° SSE
FALCON 9 DEB 4.1 23:27:02 10° SSW 23:30:11 32° SE 23:32:21 16° ENE
COBE Rocket 3.9 23:25:50 10° N 23:30:30 82° WNW 23:35:11 10° SSW
Okean 1-7 4.3 23:27:19 10° SE 23:30:30 20° E 23:33:00 13° NE
CZ-4 R/B 2.5 23:29:09 10° ESE 23:32:06 20° ENE 23:35:00 10° NNE
H-2A R/B 2.6 23:29:07 10° SSE 23:32:50 88° WSW 23:36:32 10° NNW
Cosmos 1733 Rocket 3.0 23:29:03 10° N 23:33:26 76° E 23:37:49 10° SSE
SMAP 3.3 23:32:58 10° S 23:37:37 75° WSW 23:42:17 10° NNW
NOAA 12 4.1 23:32:23 10° SSE 23:37:38 65° ENE 23:42:53 10° N
YAOGAN 6 3.4 23:34:57 10° SE 23:37:59 28° ENE 23:41:04 10° NNE
Lacrosse 5 rocket 2.5 23:36:40 10° WSW 23:40:44 38° NW 23:44:24 11° NNE
Feng Yun 1-1 Rocket 4.5 23:35:51 10° S 23:41:14 73° WSW 23:46:38 10° NNW
Cosmos 2219 Rocket 3.5 23:36:28 10° SW 23:41:39 38° WNW 23:46:53 10° N
CORIOLIS 4.2 23:37:11 10° SSE 23:42:37 85° WSW 23:48:06 10° NNW
USA 267 3.5 23:39:03 10° SE 23:45:35 76° SW 23:52:09 10° NW
Cosmos 2026 Rocket 4.4 23:40:46 10° SSE 23:46:19 39° E 23:51:51 10° NNE
STARLINK-52 3.9 23:45:11 10° SSW 23:48:27 37° SE 23:49:46 26° E
SL-4 R/B 4.0 23:48:45 10° WNW 23:51:15 16° NNW 23:53:28 11° NNE
ERBS 3.0 23:49:54 10° NW 23:53:11 54° SW 23:56:27 10° SSE
